Location: Boussac
(44.2782°N, 2.3665°E)
Time: 11:48:36
(UTC+00:00)

NOSS 3-4 (C) - Pass Details

Date: 15 May 2026
Orbit: 773 x 1438 km, 63.4° (Epoch: 26 December)

Event Time Altitude Azimuth Distance (km) Brightness Sun altitude
Rises 20:41:02 0° 324° (NW) 3,677 8.4 -13.8°
Reaches altitude 10° 20:43:32 10° 329° (NNW) 2,815 7.2 -14.1°
Maximum altitude 20:50:07 54° 47° (NE) 1,369 4.2 -14.9°
Enters shadow 20:55:45 19° 118° (ESE) 2,601 5.1 -15.6°
